Temp
24 23 22 22 22 22 21 21 21 21 21 21 21 20 20 20 19 19 20 20 22 20 19 19 20 20 20 22 22 22 21 21 18 21 21 22 21 21 22 22 21 22 23
22 22 21 21 21 21 21 20 20 20 20 20 20 19 19 19 19 20 20 20 19 18 19 18 19 20 21 21 21 21 21 20 20 18 20 20 21 21 20 20 21 22 21
22 22 21 21 21 20 20 20 20 20 19 19 19 19 19 19 19 18 19 18 18 18 17 17 18 19 20 20 20 20 20 20 20 19 19 20 20 20 20 20 20 20 21
22 21 21 20 20 20 20 20 19 19 19 19 19 19 18 18 18 19 18 18 18 17 17 17 17 18 18 18 18 18 18 18 19 18 18 19 19 19 19 19 19 19 19
21 21 20 20 20 20 20 19 19 19 19 18 19 18 18 18 17 17 18 17 17 17 17 17 17 17 17 17 17 17 17 17 17 17 17 17 17 18 18 18 18 18 18
21 20 20 20 20 19 19 19 18 18 18 18 18 17 17 17 17 17 18 17 17 17 16 16 16 15 15 16 16 16 16 15 15 16 16 16 17 17 17 17 16 16 15
20 19 20 19 19 18 18 18 17 17 17 17 17 17 17 16 16 16 16 16 15 14 14 14 14 14 14 14 14 14 14 15 14 13 14 15 16 16 16 15 15 15 15
20 20 20 20 20 18 17 17 17 16 16 16 16 16 16 16 16 16 15 15 15 14 14 14 14 13 13 13 13 13 12 12 13 13 13 13 13 13 13 14 14 14 14
19 19 18 18 18 17 16 16 16 16 16 16 16 16 16 16 16 16 15 15 15 14 14 14 13 13 13 12 12 11 11 11 11 11 12 12 13 13 13 13 13 13 14
19 18 17 17 17 16 16 16 16 15 16 16 16 16 16 16 16 16 15 15 14 13 13 13 13 12 12 11 11 10 10 9 9 9 9 10 11 12 13 13 12 12 13
17 17 17 16 16 16 16 16 15 16 16 16 16 16 16 16 16 16 15 14 13 12 11 11 11 11 10 10 10 9 9 9 8 8 8 8 9 10 11 12 12 12 12
17 17 16 16 16 16 16 16 16 16 16 16 16 17 16 15 14 14 13 11 11 10 10 10 10 9 9 9 9 9 9 8 7 7 7 8 8 9 11 11 12 12 12
17 17 16 16 16 16 16 16 17 16 16 16 16 16 13 13 13 12 11 11 11 10 9 8 8 8 9 9 9 9 8 8 8 7 7 8 10 11 11 11 12 12 12
17 16 16 16 16 17 17 16 16 16 16 16 15 13 12 11 11 11 11 10 10 10 9 9 9 8 8 8 8 8 8 8 8 8 8 9 10 10 10 11 11 11 11
16 16 17 17 17 17 17 17 16 16 16 15 14 13 12 11 11 10 10 10 10 10 8 8 8 8 7 7 7 7 7 8 8 9 9 9 10 10 10 10 10 10 10
16 16 16 16 17 17 17 16 15 15 14 13 13 12 12 11 11 11 11 10 10 9 9 8 7 7 7 7 7 7 7 8 8 8 8 8 8 8 8 9 9 10 9
16 16 16 16 16 17 16 15 13 12 12 12 12 12 11 11 11 11 11 10 10 9 9 8 8 8 8 8 7 7 7 7 7 7 8 8 7 7 8 9 8 9 10
16 16 16 16 17 15 15 14 13 13 12 12 12 12 12 11 11 11 10 9 9 9 9 8 8 8 8 7 7 7 7 7 7 7 7 7 7 7 7 8 8 9 9
16 17 17 17 15 15 15 14 13 13 12 12 12 12 12 11 11 11 10 10 8 8 8 8 8 7 7 7 7 7 7 7 7 7 7 6 6 6 6 6 7 7 8
17 17 17 16 15 15 15 14 13 13 13 12 12 12 12 12 11 11 10 10 8 8 8 7 7 7 7 7 7 6 7 6 6 6 6 6 6 6 6 6 6 7 8
17 17 16 16 16 15 15 14 14 13 13 12 12 13 13 12 11 10 10 9 8 8 7 7 7 7 6 6 6 6 5 6 6 6 6 6 6 5 5 5 6 6 7
17 16 17 16 16 15 14 14 14 14 13 13 13 13 13 12 11 10 10 9 9 9 8 7 6 6 6 6 6 5 4 2 2 6 6 5 5 5 5 5 5 6 6
17 16 16 16 15 15 14 15 14 14 14 13 13 13 12 12 11 10 9 9 10 9 8 7 6 6 6 6 5 4 3 2 2 4 6 5 5 5 5 5 5 5 6
16 16 16 16 15 15 15 14 14 14 13 13 13 12 12 11 10 11 10 10 9 8 8 7 6 6 6 6 5 5 4 3 2 3 5 5 5 5 5 5 5 5 6
16 16 16 16 15 15 14 14 14 14 14 14 14 12 12 11 11 11 10 10 9 8 8 7 7 7 7 7 7 6 6 5 3 3 4 5 5 5 5 5 5 5 6
16 16 16 16 15 15 14 14 14 14 14 13 13 12 12 11 11 10 10 10 9 8 8 7 7 7 7 7 7 8 8 5 4 3 3 4 5 5 5 5 5 6 7
Height
774 776 778 778 777 778 780 781 780 780 780 779 779 780 782 782 782 782 783 784 785 787 788 790 793 793 793 792 792 792 792 792 791 787 786 785 783 781 778 776 775 772 770
777 779 780 780 781 780 780 780 780 780 780 780 780 781 782 782 782 782 783 782 783 781 788 791 792 793 793 791 791 791 791 790 789 787 784 782 780 778 777 774 771 769 768
779 781 782 782 783 783 783 783 782 782 782 782 782 781 782 782 782 784 785 786 787 787 787 786 791 790 788 789 790 790 787 786 786 784 781 778 776 775 772 771 769 765 762
779 782 783 784 784 784 784 784 784 784 783 783 783 782 783 783 784 784 785 787 788 789 789 789 789 787 786 786 786 787 785 783 781 781 778 775 772 771 769 767 763 762 759
780 781 783 785 785 785 786 787 786 786 785 784 784 784 784 784 785 786 786 787 787 787 787 786 785 786 785 785 785 784 782 780 779 777 774 771 768 767 766 764 762 760 756
781 782 784 786 787 787 788 788 788 787 787 786 786 786 786 785 786 786 787 787 786 784 784 783 782 782 782 782 781 781 780 777 775 774 770 768 764 762 761 760 759 758 754
783 785 786 788 788 788 789 789 789 789 788 787 787 787 787 787 787 787 786 787 787 787 786 785 783 783 782 781 780 778 776 774 772 770 767 766 762 759 756 756 755 753 752
784 787 788 789 789 790 791 790 790 789 788 788 788 788 787 787 787 787 787 786 785 786 785 785 784 782 780 777 775 772 770 769 767 765 763 761 759 756 754 753 750 748 746
786 789 789 789 790 791 791 791 790 789 788 788 788 787 786 786 786 786 786 786 786 785 784 783 781 779 777 775 772 768 764 760 759 757 756 753 752 750 750 748 746 744 738
786 789 790 790 790 791 791 791 790 789 789 788 787 787 786 784 784 784 785 785 784 784 783 782 780 778 775 771 768 764 759 755 752 747 745 743 742 741 742 742 740 737 736
788 789 791 791 791 791 791 790 789 789 788 787 786 784 785 785 784 783 783 782 783 782 781 778 776 773 770 766 763 759 754 750 746 742 738 735 733 732 732 731 731 731 729
789 789 791 791 790 790 790 789 789 788 787 786 785 784 783 783 782 782 782 782 780 779 776 773 769 765 762 758 754 750 747 744 740 736 733 729 727 726 724 724 725 722 722
789 789 790 791 790 790 789 788 787 786 784 784 783 781 782 781 780 780 780 780 777 774 771 767 763 759 754 750 747 743 741 738 735 733 729 726 723 721 720 719 718 716 714
789 790 790 790 789 789 787 786 785 783 783 781 781 781 780 780 779 779 778 776 773 769 766 762 757 754 750 745 741 738 736 733 731 728 725 721 718 716 714 713 711 709 708
789 789 789 789 788 787 785 784 783 782 781 780 780 780 780 779 778 777 775 771 768 765 760 755 750 746 742 738 735 733 730 727 724 721 718 716 713 711 708 708 707 706 704
788 788 788 787 787 785 785 784 783 782 781 781 781 781 779 778 776 774 771 768 763 758 753 748 744 740 737 733 729 726 723 721 718 715 712 710 708 707 704 702 701 699 697
787 787 787 786 785 784 784 783 783 784 783 782 781 780 778 776 773 770 766 763 758 754 748 743 739 734 730 726 722 718 715 713 711 708 706 703 702 700 698 696 694 693 690
786 787 786 784 783 783 782 782 783 783 782 781 780 778 776 773 770 766 763 758 753 749 744 738 733 728 723 719 714 710 706 703 701 700 698 696 695 694 692 690 689 686 684
786 785 783 782 782 781 781 781 781 781 780 779 777 775 772 769 765 761 758 754 748 743 738 733 728 722 717 711 706 701 697 693 691 690 689 688 687 686 685 684 683 682 681
785 784 781 779 779 780 780 780 779 778 777 776 774 770 767 764 760 756 753 749 744 738 733 728 721 715 709 703 696 691 685 682 679 678 678 678 677 677 677 677 677 675 673
783 781 779 778 780 780 778 778 777 776 774 772 769 766 763 760 756 751 746 742 737 732 726 720 713 708 701 694 687 682 678 672 668 667 668 668 669 669 670 670 669 667 667
781 780 778 778 778 778 776 775 774 772 770 768 765 761 758 755 752 747 741 736 731 725 719 713 707 700 694 686 679 674 668 664 660 657 658 660 661 662 663 663 663 663 662
780 778 778 778 777 775 774 773 771 769 766 763 759 756 753 750 746 741 736 730 724 718 712 706 699 691 685 679 673 667 661 656 654 652 650 652 653 654 656 656 657 657 656
778 777 777 776 774 773 772 771 768 766 763 759 755 752 748 745 741 735 729 724 718 711 704 697 690 682 675 669 663 658 652 648 646 645 644 644 646 647 649 650 651 651 651
776 776 775 774 772 771 770 768 765 762 758 754 750 747 744 741 735 730 725 718 712 704 695 688 680 672 665 658 652 648 643 640 637 638 638 637 639 641 643 645 646 646 646
774 774 773 772 770 768 766 764 761 758 754 750 747 744 741 736 731 726 720 713 705 697 687 678 669 661 653 646 639 635 631 629 629 629 630 631 632 635 638 639 641 642 641
Wind_Speed
6 6 6 12 11 9 8 7 7 6 7 4 2 1 4 2 5 9 7 10 9 14 3 9 13 10 7 2 2 2 2 3 4 7 9 13 17 22 23 22 21 21 20
12 10 10 11 11 10 8 9 7 5 7 8 6 6 5 4 1 5 7 6 1 13 15 9 7 8 6 7 7 6 8 7 6 9 16 19 23 20 17 22 26 20 18
14 13 13 14 14 14 13 12 11 9 9 8 5 4 5 6 3 4 3 4 4 7 7 1 6 6 4 4 9 13 12 11 10 14 21 24 22 22 19 25 26 26 23
15 13 14 12 13 14 13 12 13 12 12 11 10 9 9 7 5 2 2 1 2 1 3 4 2 6 8 9 10 13 13 14 16 20 23 24 22 19 20 24 29 27 26
14 14 13 13 12 12 11 11 11 10 10 10 9 9 7 8 9 8 7 7 6 6 6 8 9 9 8 8 11 13 15 15 16 16 17 20 19 20 21 23 25 27 28
15 15 14 11 10 10 9 7 6 6 7 8 8 8 7 7 6 5 6 9 8 9 12 11 10 10 11 11 12 13 13 13 15 16 15 14 22 21 20 20 18 16 5
16 13 10 8 8 8 6 4 6 6 6 7 7 7 6 5 6 9 9 9 9 9 10 13 13 13 14 16 17 17 16 16 14 14 16 18 19 19 19 16 15 17 14
11 8 5 3 1 1 3 5 5 6 7 7 6 6 5 4 4 5 5 7 8 7 9 11 11 13 19 23 26 27 28 26 23 21 21 19 15 13 16 19 22 24 22
12 6 5 3 4 2 3 5 6 6 6 7 6 7 8 6 3 3 3 2 3 5 8 11 13 18 22 22 26 27 30 33 31 31 30 28 27 26 27 27 23 19 20
13 10 6 4 4 3 3 4 5 5 5 6 7 10 12 10 4 2 3 4 4 5 7 10 15 20 23 26 26 27 31 31 30 32 32 33 33 30 28 28 30 21 19
13 10 6 3 3 1 4 4 4 5 6 9 9 4 4 7 7 2 5 5 4 8 13 18 23 23 24 27 27 29 31 32 29 26 27 26 28 26 23 22 23 26 20
11 7 5 3 4 2 3 4 6 8 8 2 3 3 6 4 2 2 2 3 8 12 20 24 27 28 30 29 28 28 24 24 26 26 25 23 23 24 22 20 21 22 26
8 4 2 0 1 4 8 8 10 10 5 4 7 10 8 6 6 5 4 12 17 21 24 23 26 30 29 28 26 23 22 25 24 21 22 25 27 25 23 24 23 21 23
6 2 2 5 6 9 11 13 14 14 11 13 10 6 3 6 8 9 12 18 21 23 24 27 28 26 26 23 23 23 21 22 22 20 20 25 26 25 25 22 22 22 22
4 1 1 2 3 5 6 7 9 9 8 5 3 8 6 6 7 10 15 18 20 24 27 29 29 29 25 24 21 22 22 21 20 19 17 17 17 19 23 22 19 21 18
5 3 2 3 5 5 6 6 14 12 14 15 9 7 5 5 6 15 21 23 26 27 27 28 25 23 20 21 20 20 19 21 21 20 19 18 18 20 22 24 24 21 20
3 0 3 7 8 7 8 6 14 11 9 9 7 9 7 12 16 20 25 25 26 28 26 21 21 22 24 24 25 24 23 22 22 21 21 20 18 18 19 19 16 17 17
1 5 9 11 9 5 7 13 10 5 1 2 3 9 12 16 20 24 24 23 27 25 23 24 24 25 26 26 26 27 27 25 23 21 21 20 18 17 15 14 16 17 16
7 7 6 7 4 14 10 8 5 4 2 2 6 10 16 17 19 21 22 23 24 23 25 26 26 27 28 29 30 30 30 29 27 24 23 21 19 17 16 17 18 19 19
4 6 5 6 17 9 6 5 3 1 3 5 7 16 18 19 22 23 24 26 25 23 25 26 28 28 29 31 32 31 32 30 27 26 24 22 20 17 16 16 17 17 13
7 12 12 9 11 5 5 6 3 5 5 6 11 15 17 20 19 20 20 27 25 26 27 27 28 31 33 33 32 25 29 30 30 27 25 23 20 18 18 17 18 16 13
9 13 8 7 9 5 7 4 5 6 9 13 16 20 16 18 19 21 24 26 28 30 31 29 31 31 33 33 30 31 29 29 26 23 24 23 21 19 18 17 16 16 18
11 10 6 4 6 4 7 6 9 11 11 17 20 20 17 16 20 24 27 27 29 33 33 33 33 35 34 34 33 32 30 26 23 23 23 22 21 19 18 17 16 16 14
8 6 3 1 4 5 7 9 7 9 16 19 23 22 16 19 20 27 26 29 34 34 37 36 36 38 38 38 35 33 31 26 20 21 18 22 21 19 19 17 17 16 15
5 4 2 6 7 6 8 8 12 19 20 22 24 16 17 19 23 28 32 35 37 38 40 41 40 39 39 39 39 36 30 25 20 21 18 21 22 18 15 17 16 15 16
3 2 4 7 10 12 12 14 18 21 25 24 17 15 19 23 27 29 34 38 39 39 43 42 42 43 43 41 38 33 29 26 22 20 20 18 22 20 18 15 13 15 13
Wind_Direction
114 120 84 75 75 80 95 88 76 65 52 52 12 359 67 62 227 200 225 252 247 267 263 294 298 306 295 240 265 205 245 271 246 284 281 309 324 325 316 316 322 319 303
109 104 89 86 82 80 70 62 63 63 71 63 56 77 68 102 65 226 204 272 256 182 239 241 248 269 263 333 315 303 302 305 272 269 300 312 317 318 321 322 320 323 326
118 112 102 94 87 82 83 76 74 82 76 79 74 74 73 75 105 117 147 159 158 150 190 134 314 294 296 296 307 300 300 300 289 280 292 299 304 308 311 317 321 319 309
120 112 105 95 98 88 79 79 76 77 74 71 73 78 91 90 94 116 140 134 192 110 72 81 19 341 346 335 316 310 313 309 300 290 289 290 293 298 305 313 318 319 319
129 124 114 115 110 101 94 83 84 77 73 80 82 92 103 96 84 80 67 41 29 19 5 3 357 2 5 352 336 327 321 314 307 301 288 288 291 296 303 306 302 307 310
138 129 126 122 112 102 95 88 85 82 68 64 64 79 87 78 62 2 334 1 356 357 15 12 20 5 358 351 338 329 330 337 317 293 282 279 290 299 303 307 306 307 307
135 136 132 123 104 90 82 65 49 42 41 56 61 55 45 44 35 21 37 47 52 51 44 22 7 357 349 345 336 330 323 316 314 320 314 299 295 303 306 300 301 302 284
126 138 150 188 236 105 47 46 38 32 41 48 50 43 28 36 27 24 32 38 31 31 19 17 22 11 356 346 335 326 320 314 310 309 305 301 303 301 297 297 301 300 293
131 136 130 135 135 94 34 21 15 15 24 16 4 19 20 5 339 308 275 339 348 351 350 350 345 336 339 334 327 321 316 315 315 304 295 291 289 291 292 295 292 295 292
162 160 153 145 135 106 26 354 2 2 353 358 357 357 9 36 23 346 250 262 268 296 309 321 326 325 322 322 314 309 306 306 313 312 303 298 295 293 289 281 277 267 273
147 139 133 155 162 141 348 332 344 350 345 352 351 35 76 5 345 319 264 251 296 321 329 323 319 315 310 311 308 299 295 301 300 298 295 292 294 294 292 291 282 265 260
146 135 120 107 141 316 332 342 334 330 329 350 113 330 325 8 328 282 216 32 349 314 313 313 313 312 310 310 307 305 305 300 297 295 292 288 283 282 294 295 290 285 280
145 128 158 235 287 300 296 307 318 324 273 235 256 288 1 34 52 101 163 334 329 327 326 318 310 311 313 312 312 307 299 292 291 283 276 282 290 291 293 291 293 297 296
148 175 271 296 302 285 287 280 289 294 282 276 297 334 103 79 41 14 357 347 340 332 332 326 323 320 318 313 312 309 303 292 284 279 276 284 290 288 282 285 293 301 296
131 76 61 65 22 357 4 5 350 350 340 323 93 112 81 35 22 19 9 1 354 345 325 319 318 320 315 310 305 302 296 286 278 283 280 286 286 284 285 286 282 292 283
127 97 44 16 13 12 342 29 42 70 87 84 81 42 36 30 21 349 341 339 334 340 326 317 305 301 297 296 292 291 288 288 284 281 277 274 275 281 286 283 283 279 275
165 357 335 315 305 300 349 43 127 102 72 57 45 24 5 349 342 341 339 332 329 325 316 304 295 295 292 292 291 287 283 282 282 277 275 274 270 276 277 269 268 274 274
359 309 301 314 287 332 113 119 144 126 78 73 26 352 342 336 334 334 333 329 324 315 309 305 300 298 294 289 288 285 284 282 278 275 273 270 265 268 273 279 274 263 262
326 336 322 326 313 145 139 133 116 106 94 290 319 330 336 335 325 331 328 323 310 308 311 308 302 298 294 293 290 285 281 276 272 270 272 272 269 264 261 268 268 267 271
306 338 353 352 155 146 150 146 152 208 285 287 305 327 336 325 317 319 324 322 311 305 310 308 303 300 296 293 291 286 281 276 268 259 260 264 266 262 259 267 273 273 267
331 356 350 147 164 171 173 184 231 255 262 261 302 330 332 315 310 310 312 317 303 301 304 305 304 306 304 302 298 298 300 294 265 254 249 255 259 259 260 261 275 263 263
325 358 125 159 188 209 192 216 282 280 272 269 284 311 319 315 309 309 311 313 312 312 307 300 300 302 305 304 301 299 293 298 286 257 242 244 248 253 255 258 264 268 264
313 332 164 175 208 226 211 280 304 299 281 285 288 313 308 310 306 305 314 314 314 314 311 305 301 300 301 301 302 301 294 294 278 294 242 240 242 246 249 255 264 270 267
319 146 128 306 301 275 265 300 313 307 309 303 299 308 297 307 303 319 317 315 315 313 311 311 308 303 303 304 302 305 306 305 282 272 270 243 242 243 242 249 260 264 268
165 149 34 348 334 326 313 293 307 321 314 318 317 299 296 300 303 322 329 324 319 314 315 314 311 309 309 311 308 307 303 297 281 260 269 253 245 233 241 254 257 260 260
167 236 330 322 314 312 307 300 308 314 317 319 313 296 309 310 314 318 328 327 323 316 316 314 312 313 311 307 306 305 300 292 284 263 256 255 231 228 232 240 249 262 253